Weather History for VIAR - September, 2012

Change the Weather History Date:

Saturday, September 29, 2012

  Actual Average Record
Temperature  
Mean Temperature 80 °F -  
Max Temperature 93 °F 89 °F 98 °F (1998)
Min Temperature 66 °F 69 °F 64 °F (1997)
Cooling Degree Days 14    
Growing Degree Days 30 (Base 50)    
Moisture  
Dew Point 70 °F    
Average Humidity 79    
Maximum Humidity 100    
Minimum Humidity 38    
Precipitation  
Precipitation 0.00 in - - ()
Sea Level Pressure  
Sea Level Pressure 29.83 in    
Wind  
Wind Speed 1 mph ()    
Max Wind Speed 7 mph    
Max Gust Speed -    
Visibility 2.3 miles    
Events      
Averages and records for this station are not official NWS values.
T = Trace of Precipitation, MM = Missing Value Source: Averaged Metar Reports

Daily Weather History Graph

Daily Weather History Graph

Search for Another Location

Airport or City:

Trip Planner

Search our weather history database for the weather conditions in past years. The results will help you decide how hot, cold, wet, or windy it might be!

Date:

Astronomy

Sep. 29, 2012 Rise Set
Actual Time 6:23 AM IST 6:18 PM IST
Civil Twilight 5:59 AM IST 6:42 PM IST
Nautical Twilight 5:30 AM IST 7:10 PM IST
Astronomical Twilight 5:02 AM IST 7:39 PM IST
Moon 5:38 PM IST (9/29) 5:27 AM IST (9/29)
Length of Visible Light 12h 43m
Length of Day
11h 54m
Waxing Gibbous, 99% of the Moon is Illuminated
Sep 29
Waxing Gibbous
Sep 30
Full
Oct 8
Last Quarter
Oct 15
New
Oct 22
First Quarter

Hourly Weather History & Observations

Time (IST) Temp. Heat Index Dew Point Humidity Pressure Visibility Wind Dir Wind Speed Gust Speed Precip Events Conditions
12:00 AM 73.4 °F - 68.0 °F 83% 29.83 in 2.5 mi Calm Calm - N/A   Mist
1:00 AM 71.6 °F - 69.8 °F 94% 29.83 in 2.5 mi Calm Calm - N/A   Mist
1:30 AM 69.8 °F - 69.8 °F 100% 29.83 in 2.2 mi Calm Calm - N/A   Mist
2:00 AM 69.8 °F - 69.8 °F 100% 29.83 in 2.2 mi Calm Calm - N/A   Mist
2:30 AM 69.8 °F - 69.8 °F 100% 29.83 in 2.2 mi Calm Calm - N/A   Mist
3:00 AM 69.8 °F - 69.8 °F 100% 29.83 in 2.2 mi Calm Calm - N/A   Mist
5:30 AM 69 °F - 69 °F 100% 29.83 in 1 mi Calm Calm - -   Mist
5:30 AM 69.8 °F - 69.8 °F 100% 29.86 in 2.2 mi Calm Calm - N/A   Mist
6:00 AM 69.8 °F - 69.8 °F 100% 29.86 in 2.2 mi Calm Calm - N/A   Mist
8:00 AM 71.6 °F - 68.0 °F 88% 29.86 in 1.9 mi Calm Calm - N/A   Mist
8:30 AM 76 °F - 72 °F 83% 29.85 in 2 mi Calm Calm - -   Mist
8:30 AM 75.2 °F - 73.4 °F 94% 29.89 in 2.5 mi Calm Calm - N/A   Mist
11:30 AM 89 °F - 70 °F 44% 29.85 in 2 mi SSE 3.5 mph - -  
12:00 PM 89.6 °F 93.4 °F 68.0 °F 49% 29.89 in 3.7 mi West 5.8 mph - N/A   Unknown
1:30 PM 91.4 °F 95.4 °F 68.0 °F 46% 29.86 in 3.7 mi West 5.8 mph - N/A   Unknown
2:30 PM 92 °F - 70 °F 38% 29.78 in 2 mi WNW 6.9 mph - -  
4:30 PM 91.4 °F 96.8 °F 69.8 °F 49% 29.80 in 5.0 mi WNW 5.8 mph - N/A   Unknown
5:30 PM 88 °F - 74 °F 55% 29.76 in 2 mi West 3.5 mph - -  
8:30 PM 79 °F - 74 °F 79% 29.78 in 1 mi Calm Calm - -   Haze
10:00 PM 78.8 °F - 73.4 °F 83% 29.83 in 2.5 mi Calm Calm - N/A   Mist
10:30 PM 78.8 °F - 73.4 °F 83% 29.83 in 2.5 mi Calm Calm - N/A   Mist
11:30 PM 78 °F - 70 °F 71% 29.80 in 1 mi Calm Calm - -   Mist